星链-1953 (STARLINK-1953 )

导读

STARLINK-1953是美国SpaceX公司星链星座的第1953颗卫星,于2021年2月4日发射入轨,运行在低地球轨道。作为星链全球互联网项目的组成部分,它依托低轨组网架构,可为偏远地区提供低延迟宽带接入,支持航海、航空移动场景互联,也具备潜在军事通信应用价值。星链计划虽然推动了卫星通信技术创新,但大量部署低轨卫星也引发了太空碰撞风险、天文观测干扰等全球争议。

Basic Information
目录编号:
47554
目录名称:
STARLINK-1953
国际标识:
2021-009G
轨道中心:
EARTH
卫星名称:
星链-1953
卫星全名:
星链-1953 (STARLINK-1953 )
卫星状态:
已陨落 最后检测时间 2025-03-10
发射日期:
2021-02-04 UTC
国别 :
美国 (US)
星等 :
--
Orbit Information
数据来源 国际轨道数据
星历时间: 2025-03-09T22:15:35+0800
轨道信息已过期466天
半长轴: 6543.457km
偏心率: 0.0007547
轨道倾角: 53.032°
近地点辐角 302.809°
升交点赤经 183.313°
平近点角 158.459°
近地点: 160.383km
远地点: 170.261km
周期: 87.795分钟
每日圈数: 16.401817
Detailed Information
固有亮度:
5
最大亮度:
2.5
卫星平台:
Starlink V1.0
覆盖范围:
全球
运营商:
太空探索技术公司
运营商所在国:
美国
制造商(研发单位):
太空探索技术公司
制造商所在国:
美国
使用方式:
暂无
Satellite Introduction
星链(Starlink)计划是由太空探索技术公司(SpaceX)提出的一个巨型低轨卫星互联网星座项目,计划在2019年至2024年间在太空搭建由约1.2万颗卫星组成的“星链”网络,其中1584颗将部署在地球上空550千米处的近地轨道,并从2020年开始工作。该卫星仍在工作。